• en France
  • Liste des pays
  • À 7 jours
  • Température de l'eau
  • Carte satellitaire
  • Carte météo
  • Widgets météo
  • user-avatar
    Se connecter

    Météo par heure à Arauca

    Ce jour, 14 Décembre, Jeudi

    Heure Température Précipitation Vent Pression Humidité
    00:00 +24°C° 0 mm 1 m/s 748 mmHg 82%
    01:00 +24°C° 0 mm 1 m/s 748 mmHg 83%
    02:00 +24°C° 0 mm 1 m/s 748 mmHg 82%
    03:00 +24°C° 0 mm 1 m/s 748 mmHg 81%
    04:00 +24°C° 0 mm 1 m/s 748 mmHg 80%
    05:00 +24°C° 0,1 mm 1 m/s 749 mmHg 78%
    06:00 +25°C° 0,1 mm 1 m/s 749 mmHg 77%
    07:00 +25°C° 0 mm 2 m/s 749 mmHg 75%
    08:00 +27°C° 0 mm 2 m/s 749 mmHg 68%
    09:00 +29°C° 0 mm 2 m/s 749 mmHg 61%
    10:00 +31°C° 0 mm 3 m/s 749 mmHg 53%
    11:00 +33°C° 0 mm 3 m/s 749 mmHg 52%
    12:00 +34°C° 0 mm 3 m/s 748 mmHg 50%
    13:00 +35°C° 0 mm 3 m/s 747 mmHg 48%
    14:00 +34°C° 0 mm 3 m/s 747 mmHg 50%
    15:00 +34°C° 0 mm 3 m/s 746 mmHg 52%
    16:00 +34°C° 0 mm 2 m/s 746 mmHg 55%
    17:00 +31°C° 0 mm 2 m/s 746 mmHg 61%
    18:00 +29°C° 0 mm 2 m/s 747 mmHg 67%
    19:00 +27°C° 0 mm 1 m/s 747 mmHg 73%
    20:00 +27°C° 0 mm 1 m/s 747 mmHg 74%
    21:00 +26°C° 0 mm 1 m/s 748 mmHg 76%
    22:00 +26°C° 0 mm 1 m/s 748 mmHg 77%
    23:00 +25°C° 0 mm 1 m/s 748 mmHg 76%

    Demain, 15 Décembre, Vendredi

    Heure Température Précipitation Vent Pression Humidité
    00:00 +25°C° 0 mm 1 m/s 748 mmHg 75%
    01:00 +25°C° 0 mm 2 m/s 748 mmHg 74%
    02:00 +24°C° 0 mm 2 m/s 748 mmHg 71%
    03:00 +24°C° 0 mm 2 m/s 748 mmHg 68%
    04:00 +24°C° 0 mm 2 m/s 748 mmHg 64%
    05:00 +24°C° 0 mm 2 m/s 748 mmHg 64%
    06:00 +24°C° 0 mm 1 m/s 749 mmHg 64%
    07:00 +25°C° 0 mm 1 m/s 749 mmHg 63%
    08:00 +27°C° 0 mm 2 m/s 749 mmHg 59%
    09:00 +29°C° 0 mm 2 m/s 749 mmHg 54%
    10:00 +33°C° 0 mm 3 m/s 750 mmHg 49%
    11:00 +33°C° 0 mm 3 m/s 749 mmHg 49%
    12:00 +34°C° 0 mm 3 m/s 748 mmHg 48%
    13:00 +35°C° 0 mm 3 m/s 747 mmHg 48%
    14:00 +34°C° 0 mm 3 m/s 747 mmHg 50%
    15:00 +34°C° 0 mm 2 m/s 746 mmHg 52%
    16:00 +34°C° 0 mm 2 m/s 745 mmHg 54%
    17:00 +31°C° 0 mm 2 m/s 746 mmHg 60%
    18:00 +29°C° 0 mm 2 m/s 746 mmHg 66%
    19:00 +27°C° 0 mm 1 m/s 746 mmHg 73%
    20:00 +26°C° 0 mm 1 m/s 747 mmHg 74%
    21:00 +26°C° 0 mm 1 m/s 747 mmHg 75%
    22:00 +25°C° 0 mm 1 m/s 748 mmHg 76%
    23:00 +25°C° 0 mm 1 m/s 748 mmHg 77%

    Après-demain, 16 Décembre, Samedi

    Heure Température Précipitation Vent Pression Humidité
    00:00 +24°C° 0 mm 1 m/s 747 mmHg 78%
    01:00 +24°C° 0 mm 1 m/s 747 mmHg 79%
    02:00 +24°C° 0 mm 1 m/s 747 mmHg 79%
    03:00 +23°C° 0 mm 1 m/s 747 mmHg 79%
    04:00 +23°C° 0 mm 1 m/s 747 mmHg 79%
    05:00 +23°C° 0 mm 1 m/s 748 mmHg 77%
    06:00 +24°C° 0 mm 2 m/s 748 mmHg 74%
    07:00 +24°C° 0 mm 2 m/s 749 mmHg 72%
    08:00 +26°C° 0 mm 2 m/s 749 mmHg 66%
    09:00 +29°C° 0 mm 3 m/s 749 mmHg 60%
    10:00 +31°C° 0 mm 3 m/s 750 mmHg 54%
    11:00 +33°C° 0 mm 3 m/s 749 mmHg 51%
    12:00 +34°C° 0 mm 3 m/s 748 mmHg 49%
    13:00 +35°C° 0 mm 3 m/s 747 mmHg 46%
    14:00 +35°C° 0 mm 3 m/s 746 mmHg 48%
    15:00 +34°C° 0 mm 2 m/s 746 mmHg 49%
    16:00 +34°C° 0 mm 2 m/s 745 mmHg 51%
    17:00 +31°C° 0 mm 2 m/s 745 mmHg 58%
    18:00 +29°C° 0 mm 2 m/s 746 mmHg 64%
    19:00 +26°C° 0 mm 1 m/s 746 mmHg 71%
    20:00 +26°C° 0 mm 1 m/s 747 mmHg 72%
    21:00 +25°C° 0 mm 1 m/s 747 mmHg 72%
    22:00 +25°C° 0 mm 1 m/s 748 mmHg 72%
    23:00 +24°C° 0 mm 1 m/s 747 mmHg 71%

    17 Décembre, Dimanche

    Heure Température Précipitation Vent Pression Humidité
    00:00 +24°C° 0 mm 1 m/s 747 mmHg 70%
    01:00 +24°C° 0 mm 1 m/s 747 mmHg 69%
    02:00 +23°C° 0 mm 1 m/s 747 mmHg 67%
    03:00 +23°C° 0 mm 1 m/s 747 mmHg 66%
    04:00 +23°C° 0 mm 1 m/s 747 mmHg 64%
    05:00 +23°C° 0 mm 1 m/s 748 mmHg 64%
    06:00 +23°C° 0 mm 1 m/s 748 mmHg 64%
    07:00 +24°C° 0 mm 1 m/s 749 mmHg 64%
    08:00 +26°C° 0 mm 2 m/s 749 mmHg 59%
    09:00 +29°C° 0 mm 3 m/s 750 mmHg 55%
    10:00 +31°C° 0 mm 3 m/s 750 mmHg 50%
    11:00 +33°C° 0 mm 3 m/s 749 mmHg 48%
    12:00 +34°C° 0 mm 3 m/s 748 mmHg 46%
    13:00 +35°C° 0 mm 3 m/s 747 mmHg 44%
    14:00 +35°C° 0 mm 3 m/s 747 mmHg 45%
    15:00 +35°C° 0 mm 2 m/s 746 mmHg 47%
    16:00 +34°C° 0 mm 2 m/s 745 mmHg 48%
    17:00 +31°C° 0 mm 2 m/s 746 mmHg 54%
    18:00 +29°C° 0 mm 2 m/s 746 mmHg 60%
    19:00 +27°C° 0 mm 1 m/s 746 mmHg 67%
    20:00 +26°C° 0 mm 1 m/s 747 mmHg 68%
    21:00 +26°C° 0 mm 1 m/s 747 mmHg 69%
    22:00 +25°C° 0 mm 1 m/s 748 mmHg 70%
    23:00 +25°C° 0 mm 1 m/s 747 mmHg 69%

    18 Décembre, Lundi

    Heure Température Précipitation Vent Pression Humidité
    00:00 +24°C° 0 mm 1 m/s 747 mmHg 68%
    01:00 +24°C° 0 mm 1 m/s 747 mmHg 67%
    02:00 +24°C° 0 mm 1 m/s 747 mmHg 64%
    03:00 +24°C° 0 mm 1 m/s 747 mmHg 60%
    04:00 +23°C° 0 mm 1 m/s 747 mmHg 57%
    05:00 +24°C° 0 mm 1 m/s 748 mmHg 56%
    06:00 +24°C° 0 mm 1 m/s 749 mmHg 56%
    07:00 +24°C° 0 mm 1 m/s 749 mmHg 55%
    08:00 +26°C° 0 mm 2 m/s 749 mmHg 53%
    09:00 +29°C° 0 mm 3 m/s 750 mmHg 52%
    10:00 +31°C° 0 mm 3 m/s 750 mmHg 50%
    11:00 +33°C° 0 mm 3 m/s 749 mmHg 48%
    12:00 +34°C° 0 mm 3 m/s 748 mmHg 46%
    13:00 +35°C° 0 mm 3 m/s 747 mmHg 44%
    14:00 +35°C° 0 mm 3 m/s 746 mmHg 46%
    15:00 +35°C° 0 mm 3 m/s 746 mmHg 48%
    16:00 +35°C° 0 mm 2 m/s 745 mmHg 50%
    17:00 +31°C° 0 mm 2 m/s 746 mmHg 56%
    18:00 +29°C° 0 mm 2 m/s 746 mmHg 63%
    19:00 +27°C° 0 mm 1 m/s 747 mmHg 70%
    20:00 +27°C° 0 mm 1 m/s 747 mmHg 71%
    21:00 +26°C° 0 mm 1 m/s 748 mmHg 73%
    22:00 +26°C° 0 mm 1 m/s 748 mmHg 74%
    23:00 +25°C° 0 mm 1 m/s 748 mmHg 72%

    19 Décembre, Mardi

    Heure Température Précipitation Vent Pression Humidité
    00:00 +25°C° 0 mm 1 m/s 747 mmHg 70%
    01:00 +25°C° 0 mm 1 m/s 747 mmHg 68%
    02:00 +24°C° 0 mm 1 m/s 747 mmHg 64%
    03:00 +24°C° 0 mm 1 m/s 747 mmHg 60%
    04:00 +24°C° 0 mm 1 m/s 747 mmHg 55%
    05:00 +24°C° 0 mm 1 m/s 748 mmHg 55%
    06:00 +24°C° 0 mm 1 m/s 748 mmHg 54%
    07:00 +25°C° 0 mm 1 m/s 749 mmHg 54%
    08:00 +27°C° 0 mm 2 m/s 749 mmHg 52%
    09:00 +29°C° 0 mm 2 m/s 749 mmHg 50%
    10:00 +31°C° 0 mm 3 m/s 749 mmHg 49%
    11:00 +33°C° 0 mm 3 m/s 748 mmHg 47%
    12:00 +35°C° 0 mm 3 m/s 747 mmHg 45%
    13:00 +36°C° 0 mm 3 m/s 747 mmHg 43%
    14:00 +36°C° 0 mm 2 m/s 746 mmHg 45%
    15:00 +35°C° 0 mm 2 m/s 745 mmHg 46%
    16:00 +35°C° 0 mm 2 m/s 745 mmHg 48%
    17:00 +32°C° 0 mm 2 m/s 745 mmHg 55%
    18:00 +30°C° 0 mm 1 m/s 746 mmHg 62%
    19:00 +28°C° 0 mm 1 m/s 746 mmHg 69%
    20:00 +27°C° 0 mm 1 m/s 747 mmHg 70%
    21:00 +27°C° 0 mm 1 m/s 747 mmHg 71%
    22:00 +26°C° 0 mm 1 m/s 748 mmHg 71%
    23:00 +26°C° 0 mm 1 m/s 747 mmHg 70%
    Voir plus